Wind_Speed
67 67 67 68 70 71 72 73 72 71 70 71 74 75 75 75 74 73 69 64 61 58 55 53 52 49 47 46 48 54 61 70 77 87 100 116 128 132
67 67 68 68 69 71 72 72 72 73 72 71 72 72 72 72 71 69 66 62 59 56 54 52 50 46 44 43 46 52 60 68 74 83 95 111 125 131
66 67 67 68 69 70 71 71 72 73 74 71 70 70 69 69 67 65 62 60 58 55 53 51 48 45 42 41 44 50 58 67 74 81 91 107 123 130
66 67 66 67 68 69 70 70 71 72 73 72 70 68 66 65 64 61 59 58 56 53 51 50 48 44 40 40 43 50 58 67 74 81 90 104 121 129
65 65 65 66 67 68 69 69 70 71 71 72 69 66 63 62 61 59 57 56 54 52 50 48 47 43 39 39 43 50 59 68 76 82 90 101 118 129
63 63 64 65 66 67 67 68 69 69 69 70 68 65 62 61 60 58 56 54 52 51 49 47 45 40 38 38 43 51 60 69 77 84 91 101 117 128
61 62 63 64 65 66 66 66 67 67 67 68 66 64 61 60 58 57 55 52 49 49 48 45 43 38 36 37 42 52 62 70 80 86 92 101 115 128
60 61 62 63 64 64 65 65 65 65 66 66 64 62 60 58 57 55 54 51 47 46 47 42 41 37 34 35 41 53 63 73 82 88 93 102 114 128
59 59 60 61 62 62 63 62 61 62 63 63 61 60 58 56 55 53 51 49 46 43 44 40 38 35 32 33 40 53 65 76 84 89 94 103 114 127
57 58 59 60 60 61 60 59 58 58 59 59 58 57 55 54 53 52 49 46 42 41 41 38 35 33 29 29 38 53 65 77 85 91 96 103 114 127
57 57 57 58 58 59 59 57 56 56 56 55 54 54 53 51 51 50 47 44 40 38 38 36 32 29 25 26 35 52 66 78 86 91 97 104 114 126
56 55 56 57 57 57 57 55 54 54 53 52 51 50 49 48 48 47 45 41 39 36 35 33 29 26 21 23 33 50 66 78 87 91 96 105 114 125
54 54 55 55 55 55 54 53 53 52 51 49 48 47 46 45 45 43 41 39 36 34 32 30 26 22 17 19 30 47 64 76 86 92 97 105 114 125
52 53 53 53 53 53 52 51 50 50 48 47 46 44 43 43 42 40 37 36 34 32 29 27 23 19 14 15 26 43 61 74 84 90 97 104 114 124
50 51 51 50 50 50 49 48 48 47 45 44 43 41 40 40 39 36 33 33 31 29 26 23 20 16 10 13 24 40 57 71 82 89 97 104 113 123
48 48 48 47 47 47 46 46 45 44 43 42 40 38 37 36 36 33 31 30 28 26 23 20 17 13 8 12 23 36 52 67 79 87 96 104 112 122
46 45 45 44 44 44 44 43 43 42 41 40 38 35 34 34 33 31 29 27 24 22 20 17 14 10 6 10 21 34 48 62 75 85 94 103 111 121
43 42 42 42 41 41 41 41 41 40 39 38 35 33 32 31 30 28 27 25 22 19 16 13 11 7 5 9 20 31 43 57 70 81 91 100 109 119
39 39 40 39 39 38 38 38 38 38 36 35 33 31 30 29 27 26 24 22 20 16 13 10 8 5 4 8 17 29 41 53 66 77 87 97 106 116
37 37 37 36 36 36 36 36 36 35 34 32 30 29 29 28 26 25 23 21 17 14 10 8 5 4 4 8 15 25 37 50 63 74 84 93 102 113
34 33 33 33 33 33 34 34 34 33 31 30 28 28 27 26 23 22 21 18 15 12 9 6 4 4 6 10 16 23 33 45 58 70 80 90 99 110
30 30 30 30 31 31 32 32 32 30 29 27 26 26 25 23 21 20 18 15 12 9 7 5 4 6 9 12 17 23 31 41 54 66 77 87 96 106
27 27 27 28 28 29 29 30 29 28 27 25 24 24 22 20 18 17 15 12 10 7 6 5 6 8 11 14 18 24 31 39 49 61 72 81 91 101
Wind_Direction
304 304 304 304 304 305 307 307 308 309 311 312 311 311 311 310 310 309 308 306 304 302 299 297 293 287 278 266 248 231 220 214 212 211 208 205 202 200
303 304 304 304 305 306 307 308 309 310 312 313 313 312 311 311 310 309 308 306 305 303 300 298 294 287 278 264 245 229 218 212 209 209 206 203 201 199
303 303 304 304 305 306 307 308 309 311 313 314 314 313 312 312 311 309 309 307 306 304 301 299 295 288 277 261 241 226 216 210 206 205 203 202 200 198
302 302 302 303 305 306 307 309 310 312 313 315 316 315 314 313 312 310 309 308 307 304 301 300 296 288 277 258 238 222 213 207 204 202 201 200 199 197
301 302 302 303 305 307 308 309 311 312 313 315 316 316 315 314 312 312 311 309 307 304 301 300 297 288 277 255 235 220 210 204 201 200 199 199 198 196
300 301 302 304 305 307 308 309 311 312 314 315 316 317 316 316 314 314 313 311 308 305 303 301 298 288 277 255 234 218 209 203 199 199 198 198 197 195
299 300 302 304 305 307 308 310 311 313 314 315 317 318 318 318 317 316 315 313 310 306 304 303 299 290 276 254 234 217 207 201 198 197 197 196 196 195
300 301 302 304 305 307 308 310 312 314 315 316 318 319 319 318 318 318 317 315 313 308 305 305 300 292 276 255 231 214 206 199 196 196 196 196 195 194
300 301 302 304 305 307 309 311 312 314 316 317 319 319 319 319 319 319 318 317 315 311 308 307 301 295 277 255 229 213 204 198 194 194 195 195 194 193
299 300 302 304 305 307 309 311 313 315 316 317 318 319 319 319 320 320 320 319 317 314 311 310 304 297 280 254 227 210 202 197 194 194 194 194 193 192
298 300 302 304 305 307 309 312 314 315 316 318 319 319 320 320 321 322 322 320 320 317 314 313 309 301 283 252 225 209 200 196 194 193 193 193 193 192
297 299 301 303 305 307 310 313 314 316 318 319 319 319 320 321 322 322 322 322 322 321 318 316 314 306 286 249 222 207 199 195 193 193 193 192 192 191
297 298 301 303 305 307 310 313 315 317 319 320 321 320 321 322 323 323 322 324 325 324 322 321 319 310 288 245 219 205 198 195 193 192 192 192 192 191
296 297 300 302 305 308 311 314 316 318 320 321 322 322 322 323 324 324 324 325 327 327 326 325 323 314 288 238 212 201 196 194 193 191 191 191 191 190
296 297 300 302 305 308 312 314 317 319 321 322 322 323 323 324 325 326 325 325 327 328 329 328 326 317 286 229 205 198 194 193 192 191 191 191 191 190
295 297 300 302 305 309 312 315 318 320 322 323 323 324 324 325 326 326 326 326 327 329 330 330 328 320 283 223 201 195 193 192 191 191 191 191 191 190
295 297 299 302 306 310 313 316 319 321 322 324 324 324 325 325 326 327 327 328 327 329 329 329 328 321 284 219 200 194 193 192 191 191 191 191 191 190
295 297 299 303 307 311 314 317 320 322 323 324 324 324 324 324 325 326 327 328 327 327 327 327 326 317 276 215 199 193 192 192 191 191 191 192 191 191
295 297 300 304 308 311 315 318 321 322 323 324 324 324 324 323 323 324 325 325 324 324 322 320 317 306 254 209 196 192 189 190 190 191 191 192 192 191
294 297 300 305 309 313 316 319 322 323 324 324 324 324 325 324 322 323 323 323 320 318 314 308 295 266 225 201 193 189 189 189 189 190 190 191 192 192
294 297 301 306 311 314 318 321 323 324 324 325 325 325 326 326 324 325 324 321 317 310 301 289 266 231 206 195 191 189 188 188 188 189 190 191 192 192
295 299 304 309 313 316 320 323 324 326 326 326 326 327 327 327 326 326 326 321 316 307 292 273 237 211 199 193 192 190 188 187 187 188 190 191 192 193
296 301 306 311 315 318 323 326 327 328 329 329 329 328 328 326 326 328 328 324 315 298 275 254 227 208 200 196 194 191 189 187 187 188 189 190 192 192
Height
5573 5563 5554 5544 5534 5524 5514 5503 5494 5487 5479 5465 5447 5432 5417 5404 5391 5378 5368 5359 5349 5339 5330 5321 5312 5305 5300 5297 5298 5302 5310 5322 5336 5354 5375 5402 5432 5464
5556 5547 5537 5527 5517 5507 5496 5485 5474 5464 5457 5447 5431 5416 5401 5387 5373 5360 5350 5340 5332 5322 5313 5304 5297 5290 5284 5282 5283 5288 5296 5308 5323 5340 5360 5385 5414 5445
5540 5530 5521 5510 5500 5490 5479 5468 5457 5445 5436 5428 5413 5400 5385 5370 5357 5344 5333 5323 5314 5305 5296 5288 5281 5275 5270 5268 5269 5274 5283 5295 5309 5326 5346 5369 5398 5430
5523 5514 5504 5494 5484 5474 5463 5452 5440 5428 5417 5408 5397 5383 5369 5355 5342 5330 5319 5308 5298 5290 5281 5273 5266 5260 5256 5254 5256 5261 5270 5282 5297 5314 5333 5355 5381 5414
5507 5498 5488 5479 5469 5458 5447 5436 5425 5413 5400 5389 5380 5368 5355 5341 5327 5317 5305 5294 5284 5274 5266 5258 5251 5246 5242 5241 5243 5248 5257 5270 5284 5301 5321 5343 5370 5401
5491 5482 5473 5464 5454 5443 5432 5421 5409 5398 5386 5374 5363 5352 5340 5326 5313 5302 5292 5281 5270 5260 5251 5244 5237 5232 5228 5227 5230 5235 5245 5258 5274 5291 5311 5332 5358 5389
5476 5467 5458 5449 5439 5428 5418 5407 5395 5383 5372 5359 5348 5336 5324 5312 5299 5287 5277 5267 5258 5245 5237 5231 5223 5218 5215 5214 5217 5223 5233 5246 5263 5281 5300 5322 5348 5378
5461 5452 5443 5434 5424 5414 5403 5392 5381 5369 5357 5345 5334 5322 5311 5299 5287 5275 5263 5254 5246 5237 5223 5218 5210 5205 5202 5201 5204 5210 5220 5234 5252 5271 5291 5313 5339 5369
5446 5438 5429 5420 5410 5401 5390 5379 5368 5355 5344 5332 5321 5310 5298 5288 5276 5266 5254 5242 5233 5224 5213 5207 5199 5193 5189 5188 5191 5198 5209 5224 5242 5261 5282 5304 5330 5359
5432 5424 5416 5407 5397 5387 5378 5368 5356 5345 5333 5322 5310 5299 5288 5276 5265 5254 5243 5234 5224 5214 5203 5196 5189 5183 5178 5177 5180 5187 5198 5214 5232 5252 5274 5297 5322 5351
5418 5410 5402 5394 5384 5374 5366 5357 5346 5335 5323 5311 5300 5288 5277 5266 5255 5244 5234 5224 5216 5207 5196 5187 5180 5174 5170 5169 5171 5178 5189 5205 5224 5244 5266 5290 5315 5344
5404 5397 5389 5380 5372 5362 5353 5344 5334 5324 5313 5302 5291 5280 5269 5258 5247 5236 5226 5216 5208 5200 5190 5181 5173 5167 5163 5162 5163 5170 5182 5198 5217 5237 5259 5283 5308 5336
5390 5383 5376 5368 5359 5350 5341 5332 5323 5313 5303 5293 5282 5272 5261 5251 5241 5230 5220 5210 5202 5193 5185 5176 5169 5162 5158 5157 5159 5165 5177 5193 5211 5231 5253 5277 5302 5330
5376 5369 5363 5355 5347 5339 5330 5322 5312 5303 5293 5283 5273 5263 5254 5244 5234 5224 5215 5206 5198 5190 5181 5173 5166 5160 5157 5155 5158 5164 5174 5189 5207 5227 5249 5272 5296 5324
5363 5357 5350 5343 5336 5328 5320 5311 5303 5293 5284 5275 5265 5256 5247 5238 5229 5220 5211 5203 5195 5187 5180 5172 5166 5161 5158 5157 5158 5164 5174 5188 5204 5223 5244 5266 5291 5318
5350 5345 5338 5332 5325 5318 5310 5302 5293 5284 5276 5267 5258 5249 5240 5232 5224 5215 5208 5200 5193 5186 5179 5173 5167 5163 5160 5160 5162 5167 5175 5188 5204 5221 5241 5262 5286 5313
5338 5333 5327 5321 5315 5308 5301 5293 5284 5276 5268 5259 5251 5243 5235 5227 5219 5211 5204 5198 5191 5185 5179 5174 5170 5166 5164 5164 5166 5171 5178 5190 5204 5221 5240 5261 5284 5310
5327 5322 5317 5311 5305 5299 5292 5284 5276 5268 5260 5252 5244 5237 5229 5222 5215 5208 5202 5196 5190 5184 5179 5175 5172 5169 5168 5168 5171 5175 5181 5192 5206 5221 5240 5261 5284 5308
5317 5312 5307 5302 5296 5290 5284 5276 5269 5261 5253 5246 5238 5231 5224 5218 5211 5205 5199 5194 5188 5184 5180 5177 5174 5172 5172 5172 5174 5179 5185 5194 5206 5222 5240 5262 5285 5308
5307 5303 5299 5294 5288 5282 5276 5269 5262 5254 5247 5240 5233 5226 5220 5213 5207 5202 5196 5192 5187 5183 5180 5178 5176 5175 5175 5177 5179 5183 5188 5197 5209 5224 5241 5260 5282 5304
5298 5295 5290 5286 5281 5275 5269 5262 5255 5248 5241 5234 5228 5221 5215 5209 5203 5198 5194 5189 5186 5183 5180 5179 5178 5178 5178 5180 5183 5187 5193 5200 5210 5224 5240 5257 5277 5298
5290 5287 5283 5278 5274 5268 5262 5255 5249 5242 5236 5229 5223 5217 5211 5205 5200 5196 5191 5187 5184 5182 5180 5180 5179 5180 5181 5183 5187 5191 5196 5203 5212 5224 5239 5256 5274 5299
5283 5280 5276 5272 5267 5262 5256 5250 5243 5237 5231 5225 5219 5213 5207 5202 5197 5193 5189 5186 5183 5182 5181 5180 5180 5181 5183 5186 5189 5193 5199 5206 5215 5227 5242 5259 5278 5298